TimeMDT,TemperatureF,Dew PointF,Humidity,Sea Level PressureIn,VisibilityMPH,Wind Direction,Wind SpeedMPH,Gust SpeedMPH,PrecipitationIn,Events,Conditions,WindDirDegrees,DateUTC
12:53 AM,59.0,54.0,83,29.91,10.0,South,10.4,-,0.00,,Partly Cloudy,170,2013-08-23 06:53:00
1:53 AM,57.0,53.1,87,29.91,10.0,SE,5.8,-,N/A,,Clear,130,2013-08-23 07:53:00
2:53 AM,54.0,51.1,90,29.90,10.0,ESE,4.6,-,N/A,,Clear,120,2013-08-23 08:53:00
3:53 AM,52.0,48.9,89,29.92,10.0,South,5.8,-,N/A,,Clear,170,2013-08-23 09:53:00
4:53 AM,48.9,46.9,93,29.94,10.0,ESE,6.9,-,N/A,,Clear,120,2013-08-23 10:53:00
5:53 AM,50.0,46.9,89,29.92,10.0,Calm,Calm,-,N/A,,Clear,0,2013-08-23 11:53:00
6:53 AM,48.0,46.0,93,29.93,10.0,Calm,Calm,-,N/A,,Clear,0,2013-08-23 12:53:00
7:53 AM,50.0,46.9,89,29.95,10.0,Calm,Calm,-,N/A,,Clear,0,2013-08-23 13:53:00
8:53 AM,55.0,48.9,80,29.96,10.0,East,4.6,-,N/A,,Scattered Clouds,100,2013-08-23 14:53:00
9:53 AM,60.1,48.9,67,29.96,10.0,NNW,6.9,-,N/A,,Scattered Clouds,330,2013-08-23 15:53:00
10:53 AM,68.0,48.0,49,29.94,10.0,Calm,Calm,-,N/A,,Mostly Cloudy,0,2013-08-23 16:53:00
11:53 AM,73.0,46.0,38,29.90,10.0,NNE,8.1,-,0.00,,Clear,20,2013-08-23 17:53:00
12:53 PM,75.9,44.1,32,29.87,10.0,NNW,4.6,-,N/A,,Clear,330,2013-08-23 18:53:00
1:40 PM,73.4,39.2,29,30.03,10.0,WNW,6.9,19.6,N/A,Thunderstorm,Overcast,290,2013-08-23 19:40:00
1:53 PM,73.0,39.9,30,29.87,10.0,WNW,4.6,-,0.00,Rain,Light Rain,290,2013-08-23 19:53:00
2:10 PM,69.8,48.2,46,30.06,6.0,SW,13.8,-,0.02,Rain-Thunderstorm,Light Rain,220,2013-08-23 20:10:00
2:21 PM,66.2,48.2,52,30.07,4.0,South,26.5,35.7,0.04,Rain,Rain,180,2013-08-23 20:21:00
2:40 PM,64.4,48.2,56,30.03,10.0,SE,17.3,25.3,0.04,Rain,Light Rain,130,2013-08-23 20:40:00
2:53 PM,66.9,45.0,45,29.88,10.0,SE,10.4,23.0,0.04,,Clear,130,2013-08-23 20:53:00
3:53 PM,71.1,44.1,38,29.86,10.0,SE,17.3,27.6,N/A,,Clear,130,2013-08-23 21:53:00
4:53 PM,72.0,42.1,34,29.83,10.0,SSE,5.8,-,N/A,,Clear,150,2013-08-23 22:53:00
5:53 PM,77.0,42.1,29,29.81,10.0,SE,12.7,-,N/A,,Clear,140,2013-08-23 23:53:00
6:53 PM,72.0,43.0,35,29.82,10.0,SSE,10.4,-,N/A,,Scattered Clouds,150,2013-08-24 00:53:00
7:53 PM,70.0,43.0,38,29.82,10.0,SSE,9.2,-,N/A,,Clear,150,2013-08-24 01:53:00
8:53 PM,66.0,46.0,48,29.82,10.0,SSE,10.4,-,N/A,,Mostly Cloudy,160,2013-08-24 02:53:00
9:53 PM,63.0,46.9,56,29.84,10.0,SSE,6.9,-,N/A,,Scattered Clouds,150,2013-08-24 03:53:00
10:53 PM,62.1,48.0,60,29.84,10.0,Calm,Calm,-,N/A,,Partly Cloudy,0,2013-08-24 04:53:00
11:53 PM,59.0,48.0,67,29.84,10.0,SSE,4.6,-,N/A,,Clear,150,2013-08-24 05:53:00